Regional Weather Roundup
Issued by NWS Charleston, SC

Current Version | Previous Version | Graphics & Text | Print | Product List | Glossary On
Versions: 1 2 3 4 5 6 7 8 9 10 11 12 13 14 15 16 17 18 19 20 21 22 23 24 25 26 27 28 29 30 31 32 33 34 35 36 37 38 39 40 41 42 43 44 45 46 47 48 49 50
000
ASUS42 KCHS 240527
RWRCHS

Regional Weather Roundup
National Weather Service Charleston SC
100 AM EDT TUE APR 24 2018

NOTE: "fair" indicates few or no clouds below 12,000 feet with no
significant weather and/or obstructions to visibility.

Not all stations are quality controlled. Use data with caution,
especially dewpoint observations.

SCZ027-030-031-034>040-042>050-240600-
...Southeast South Carolina...

CITY           SKY/WX    TMP DP  RH WIND       PRES   REMARKS
N Charleston   MOCLDY    68  66  93 SE7       29.94F
Waterfront Prk   N/A     67  65  93 E12G20    29.79S
Mount Pleasant CLOUDY    66  66 100 SE3       29.94F FOG
Johns Island   LGT RAIN  68  68 100 SE6G13    29.93F
Pinopolis        N/A     66  64  94 SE6G14    29.88S
Moncks Corner  CLOUDY    63  63 100 E8        29.94F
Summerville    MOCLDY    64  64 100 E3        29.94F
Beaufort MCAS  CLOUDY    70  69  97 SE7       29.91F
Beaufort Arpt  MOCLDY    68  64  88 S8        29.91F
Hilton Head Is FAIR      66  64  94 S7        29.92F
Walterboro     CLOUDY    66  66 100 SE8       29.93F
Allendale      CLOUDY    68  66  94 SE5       29.90F

...Southern Midlands and Pee Dee...

CITY           SKY/WX    TMP DP  RH WIND       PRES   REMARKS
Georgetown     LGT RAIN  63  63 100 E20G32    29.97F
Kingstree      LGT RAIN  63  63 100 E10G18    29.97F
Orangeburg     LGT RAIN  64  63  96 E6        29.95S
Barnwell       MOCLDY    66  64  94 E8        29.90F
Aiken          TSTM      63  63 100 E8        29.93F
Manning        CLOUDY    61  59  94 SE7       29.95F
Columbia       CLOUDY    64  64 100 E12       29.95S
Sumter         LGT RAIN  62  61  99 E9        29.96F
Florence       LGT RAIN  64  62  93 E17G28    30.00F FOG
Myrtle Beach   LGT RAIN  64  63  94 SE25G31   30.03F
N Myrtle Beach RAIN      64  62  93 SE14G24   30.02F FOG

$$

GAZ063-065-086>088-099>101-113>116-118-119-134>141-150-240600-
...Southeast Georgia...

CITY           SKY/WX    TMP DP  RH WIND       PRES   REMARKS
Savannah Arpt  FAIR      68  66  93 S9        29.91R
Hunter AAF     FAIR      67  65  91 S6        29.88
Fort Stewart   CLOUDY    69  67  94 S6        29.88S
Statesboro     CLOUDY    69  32  25 SE5       29.90S
Sylvania       CLOUDY    70  70 100 CALM      29.91S FOG
Claxton        NOT AVBL

...CSRA, Central and far Southeast Georgia...

CITY           SKY/WX    TMP DP  RH WIND       PRES   REMARKS
Thomson        CLOUDY    64  62  94 S6        29.92F THUNDER
Augusta-Bush   TSTM      66  65  96 CALM      29.89R FOG
Augusta-Daniel TSTM      67  65  93 SE9       29.91R
Swainsboro     CLOUDY    64  63  94 CALM      29.89F
Vidalia        MOCLDY    68  66  94 S3        29.88F
Eastman        FAIR      66  56  69 SW6       29.90F
Hazlehurst     FAIR      71  64  79 SW7       29.88S
Alma           FAIR      69  65  86 SW6       29.89S
Waycross       FAIR      68  65  90 SW8       29.90S
Jesup          CLOUDY    68  64  88 CALM      29.90F FOG
Baxley         FAIR      66  64  94 SW5       29.89S
Brunswick      FAIR      68  64  88 S6        29.92S
Saint Simons   MOCLDY    68  68 100 S6        29.91S

$$

SCZ027-028-034-036>038-045-046-048>050-GAZ119-141-240600-
...Lake and Supplemental Coastal Observations...

STATION/POSITION TIME  TEMP    WIND        PRES    WAVE   SWELL
                       AIR SEA DIR/SP/G            HT/PER HT/PER/DIR
                 (UTC) (F)     (DEG/KT/KT) (MB)    (FT/S) (FT/S/D)
Winyah Bay       0445   65     120/ 24     1015.0F
Lake Murray      0420   62      80/ 12/ 16 1013.9F
ACE Basin NERRS  0445   68     350/  4       N/A
Fort Pulaski     0500   66 65  200/  4/  6 1012.9
Sapelo Island    0500   67     180/  8     1012.0

$$

ANZ835-935-AMZ111-154-330-350-352-354-370-450-454-472-240600-
...C-MAN and Buoy Observations...

STATION/POSITION TIME  TEMP    WIND        PRES    WAVE   SWELL
                       AIR SEA DIR/SP/G            HT/PER HT/PER/DIR
                 (UTC) (F)     (DEG/KT/KT) (MB)    (FT/S) (FT/S/D)
Buoy 41004       0510      68  110/ 25/ 33 1013.5
Buoy 41008       0450   68 65  150/ 14/ 16 1012.2F   7/10   5/ 80/10
Folly Beach CMAN 0500   68     160/ 13/ 15 1014.1F
Capers Nearshore 0508   66 63  130/ 25/ 37 1011.1F
Fripp Nearshore  0508   66 64  150/  8/ 12 1012.6F


STATION/POSITION TIME  TEMP    WIND        PRES    WAVE   SWELL
                       AIR SEA DIR/SP/G            HT/PER HT/PER/DIR
                 (UTC) (F)     (DEG/KT/KT) (MB)    (FT/S) (FT/S/D)
5E St. Marys GA  0500      67                N/A     7/ 8   2/100/11
Frying Pan Buoy  0510   67 69  120/ 31/ 39 1017.7
Buoy 41025       0510   69 73  120/ 23/ 29 1023.7
Cape Lookout NC  0500          110/ 21/ 23 1021.9F
Buoy 41002       0510   70 72  130/ 23/ 27 1021.2
Buoy 41010       0510   72 75  200/ 12/ 27 1015.4
St Augustine FL  0500   70 69  190/  6/  6 1013.5F


$$




USA.gov is the U.S. government's official web portal to all federal, state and local government web resources and services.